Tracking 29033 objects as of 22-Jun-2024
HD Live streaming from Space Station
objects crossing your sky now

STARLINK-31468

Track STARLINK-31468 now!
10-day predictions
STARLINK-31468 is classified as:


NORAD ID: 58998
Int'l Code: 2024-036A
Perigee: 488.1 km
Apogee: 489.6 km
Inclination: 53.2 °
Period: 94.2 minutes
Semi major axis: 6859 km
RCS: Unknown
Launch date: February 23, 2024
Source: United States (US)
Launch site: AIR FORCE WESTERN TEST RANGE (AFWTR)
Your satellite tracking list
Your tracking list is empty




NASA's NSSDC Master Catalog

Two Line Element Set (TLE):
1 58998U 24036A   24173.20714823  .00001982  00000-0  84183-4 0  9996
2 58998  53.1615 108.2523 0001082 105.0338 255.0782 15.28024044 19418
Source of the keplerian elements: AFSPC